Location: *
(49.5667°N, 1.3667°W)
Time: 02:16:16
(UTC+00:00)

Cosmos 1437 Rocket - Pass Details

Date: 20 September 2019
Orbit: 506 x 563 km, 81.2° (Epoch: 20 October)

Event Time Altitude Azimuth Distance (km) Brightness Sun altitude
Rises 20:34:52 0° 342° (NNW) 2,641 7.1 -23.3°
Reaches altitude 10° 20:37:05 10° 335° (NNW) 1,743 6.1 -23.6°
Maximum altitude 20:40:41 41° 265° (W) 748 3.8 -24.1°
Enters shadow 20:41:19 38° 238° (WSW) 797 3.7 -24.2°
